This is the latest recevied weather packets stored in our database for station/object N5XJB. If no packets are shown the sender has not sent any weather packets the latest 10 day(s).
| Time | Temp. | Humidity | Pressure | Rain* | Wind** | Luminosity | Snow |
|---|---|---|---|---|---|---|---|
| 1777868173 | 18.89° C | 67% | 1019.6 hPa | 0 mm | - | 0 W/m² | - |
| 1777867870 | 18.89° C | 66% | 1019.6 hPa | 0 mm | - | 0 W/m² | - |
| 1777867567 | 18.89° C | 65% | 1019.6 hPa | 0 mm | - | 0 W/m² | - |
| 1777867264 | 19.44° C | 65% | 1019.6 hPa | 0 mm | - | 0 W/m² | - |
| 1777866960 | 19.44° C | 64% | 1019.6 hPa | 0 mm | - | 0 W/m² | - |
| 1777866656 | 19.44° C | 64% | 1019.6 hPa | 0 mm | - | 0 W/m² | - |
| 1777866355 | 19.44° C | 62% | 1019.6 hPa | 0 mm | - | 0 W/m² | - |
| 1777865749 | 19.44° C | 62% | 1019.6 hPa | 0 mm | - | 0 W/m² | - |
| 1777864840 | 20° C | 62% | 1019.6 hPa | 0 mm | - | 0 W/m² | - |
| 1777864537 | 20° C | 61% | 1019.6 hPa | 0 mm | - | 0 W/m² | - |
| 1777863931 | 20° C | 60% | 1019.3 hPa | 0 mm | - | 0 W/m² | - |
| 1777863627 | 20.56° C | 59% | 1019.6 hPa | 0 mm | - | 0 W/m² | - |
| 1777846352 | 28.33° C | 34% | 1019.6 hPa | 0 mm | - | 403 W/m² | - |
| 1777846048 | 28.89° C | 32% | 1019.6 hPa | 0 mm | - | 417 W/m² | - |
| 1777845745 | 28.33° C | 35% | 1019.6 hPa | 0 mm | - | 448 W/m² | - |
| 1777845442 | 27.78° C | 34% | 1019.6 hPa | 0 mm | - | 499 W/m² | - |
| 1777845139 | 27.78° C | 35% | 1019.6 hPa | 0 mm | - | 528 W/m² | - |
| 1777844231 | 28.33° C | 34% | 1019.6 hPa | 0 mm | - | 518 W/m² | - |
| 1777843928 | 27.78° C | 36% | 1019.9 hPa | 0 mm | - | 575 W/m² | - |
| 1777843323 | 28.89° C | 33% | 1020.3 hPa | 0 mm | - | 515 W/m² | - |
| 1777843023 | 28.89° C | 33% | 1020.3 hPa | 0 mm | - | 608 W/m² | - |
| 1777842716 | 28.89° C | 33% | 1020.3 hPa | 0 mm | - | 643 W/m² | - |
| 1777842412 | 28.89° C | 33% | 1020.3 hPa | 0 mm | - | 660 W/m² | - |
| 1777842109 | 28.89° C | 33% | 1020.3 hPa | 0 mm | - | 672 W/m² | - |
| 1777841501 | 28.89° C | 34% | 1020.3 hPa | 0 mm | - | 709 W/m² | - |
* Rain latest hour (hover to see other rain measurements)
** Current wind speed in m/s (hover to see current wind gust speed)